St. Louis, MO

10:18 AM CST on December 15, 2017 (GMT -0600)
Lambert-Saint Louis International

Weather History for KSTL - January, 2014

Change the Weather History Date:

Monday, January 6, 2014

  Actual Average Record
Temperature  
Mean Temperature -3 °F 32 °F  
Max Temperature 2 °F 40 °F 73 °F (2008)
Min Temperature -8 °F 24 °F -11 °F (1884)
Degree Days  
Heating Degree Days 68 33  
Month to date heating degree days 268 198  
Since 1 July heating degree days 2108 1963  
Cooling Degree Days 0 0  
Month to date cooling degree days 0 0  
Year to date cooling degree days 0 0  
Moisture  
Dew Point -16 °F    
Average Humidity 52    
Maximum Humidity 56    
Minimum Humidity 47    
Precipitation  
Precipitation 0.00 in 0.09 in 1.35 in (1890)
Month to date precipitation 0.84 0.53  
Year to date precipitation 0.84 0.53  
Snow  
Snow 0.00 in 0.20 in 5.10 in (1962)
Month to date snowfall 14.1 1.1  
Since 1 July snowfall 19.7 6.2  
Snow Depth 10.00 in    
Sea Level Pressure  
Sea Level Pressure 30.53 in    
Wind  
Wind Speed 14 mph (WNW)    
Max Wind Speed 29 mph    
Max Gust Speed 38 mph    
Visibility 10 miles    
Events Snow    
T = Trace of Precipitation, MM = Missing Value Source: NWS Daily Summary

Daily Weather History Graph

Daily Weather History Graph

Search for Another Location

Airport or City:

Trip Planner

Search our weather history database for the weather conditions in past years. The results will help you decide how hot, cold, wet, or windy it might be!

Date:

Astronomy

Jan. 06, 2014 Rise Set
Actual Time 7:19 AM CST 4:55 PM CST
Civil Twilight 6:50 AM CST 5:24 PM CST
Nautical Twilight 6:17 AM CST 5:57 PM CST
Astronomical Twilight 5:45 AM CST 6:29 PM CST
Moon 10:39 AM CST (1/6) 11:24 PM CST (1/6)
Length of Visible Light 10h 34m
Length of Day
9h 35m
Waxing Crescent, 35% of the Moon is Illuminated
Jan 6
Waxing Crescent
Jan 7
First Quarter
Jan 15
Full
Jan 23
Last Quarter
Jan 30
New

Hourly Weather History & Observations

Time (CST) Temp. Windchill Dew Point Humidity Pressure Visibility Wind Dir Wind Speed Gust Speed Precip Events Conditions
12:11 AM 1.4 °F -19.9 °F -14.8 °F 47% 30.33 in 6.0 mi NW 19.6 mph 26.5 mph N/A Snow Blowing Snow
12:51 AM 1.0 °F -23.2 °F -14.1 °F 49% 30.40 in 6.0 mi NW 26.5 mph 38.0 mph N/A Snow Blowing Snow
1:51 AM -0.0 °F -18.0 °F -16.1 °F 47% 30.43 in 10.0 mi WNW 12.7 mph 21.9 mph N/A   Partly Cloudy
2:51 AM -2.0 °F -17.7 °F -16.1 °F 51% 30.45 in 10.0 mi WNW 9.2 mph - N/A   Clear
3:51 AM -2.9 °F -23.8 °F -17.0 °F 51% 30.47 in 10.0 mi WNW 16.1 mph 28.8 mph N/A   Clear
4:51 AM -4.0 °F -24.5 °F -18.0 °F 51% 30.48 in 10.0 mi WNW 15.0 mph 21.9 mph N/A   Clear
5:51 AM -6.0 °F -27.7 °F -18.0 °F 56% 30.50 in 10.0 mi WNW 16.1 mph - N/A   Clear
6:51 AM -7.1 °F -28.4 °F -20.0 °F 53% 30.53 in 10.0 mi WNW 15.0 mph 25.3 mph N/A   Clear
7:51 AM -7.1 °F -32.1 °F -20.0 °F 53% 30.55 in 8.0 mi West 21.9 mph 31.1 mph N/A Snow Blowing Snow
8:51 AM -7.1 °F -32.7 °F -20.0 °F 53% 30.58 in 8.0 mi West 23.0 mph 29.9 mph N/A Snow Blowing Snow
9:51 AM -6.0 °F -31.2 °F -18.9 °F 54% 30.58 in 9.0 mi West 23.0 mph 26.5 mph N/A   Partly Cloudy
10:51 AM -4.0 °F -26.4 °F -17.0 °F 54% 30.57 in 9.0 mi West 18.4 mph 27.6 mph N/A   Partly Cloudy
11:51 AM -2.9 °F -23.8 °F -17.0 °F 51% 30.55 in 10.0 mi West 16.1 mph 26.5 mph N/A   Partly Cloudy
12:51 PM -0.9 °F -19.9 °F -16.1 °F 49% 30.53 in 10.0 mi WNW 13.8 mph - N/A   Partly Cloudy
1:51 PM -0.0 °F -19.4 °F -15.0 °F 49% 30.53 in 10.0 mi WNW 15.0 mph 23.0 mph N/A   Partly Cloudy
2:51 PM -0.0 °F -17.1 °F -15.0 °F 49% 30.54 in 10.0 mi WNW 11.5 mph 19.6 mph N/A   Partly Cloudy
3:51 PM -0.0 °F -20.7 °F -15.0 °F 49% 30.56 in 10.0 mi WNW 17.3 mph 20.7 mph N/A   Partly Cloudy
4:51 PM -0.9 °F -17.4 °F -16.1 °F 49% 30.56 in 10.0 mi WNW 10.4 mph 19.6 mph N/A   Partly Cloudy
5:51 PM -2.0 °F -19.6 °F -16.1 °F 51% 30.56 in 10.0 mi WNW 11.5 mph - N/A   Clear
6:51 PM -2.0 °F -17.7 °F -15.0 °F 54% 30.58 in 10.0 mi West 9.2 mph - N/A   Clear
7:51 PM -2.9 °F -18.8 °F -15.0 °F 56% 30.60 in 10.0 mi West 9.2 mph - N/A   Clear
8:51 PM -2.9 °F -18.8 °F -15.0 °F 56% 30.59 in 10.0 mi West 9.2 mph - N/A   Clear
9:51 PM -2.9 °F -18.8 °F -15.0 °F 56% 30.59 in 10.0 mi WSW 9.2 mph - N/A   Clear
10:51 PM -2.9 °F -17.7 °F -14.1 °F 59% 30.58 in 10.0 mi West 8.1 mph - N/A   Clear
11:51 PM -2.9 °F -16.5 °F -14.1 °F 59% 30.56 in 10.0 mi WSW 6.9 mph - N/A   Clear